Location: Unspecified
(0.0000°N, 0.0000°E)
Time: 00:33:04
(UTC+00:00)

Hubble Space Telescope - Pass Details

Date: 26 September 2023
Orbit: 521 x 525 km, 28.5° (Epoch: 04 October)

Event Time Altitude Azimuth Distance (km) Brightness Sun altitude
Rises 18:40:42 0° 213° (SSW) 2,637 4.8 -12.3°
Reaches altitude 10° 18:43:42 10° 190° (S) 1,747 3.5 -13.1°
Maximum altitude 18:46:10 16° 152° (SSE) 1,427 2.7 -13.7°
Enters shadow 18:47:16 14° 133° (SE) 1,494 2.6 -14.0°
